Location: Boursonne
(49.2024°N, 3.0468°E)
Time: 08:10:19
(UTC+00:00)

Cosmos 1689 Rocket - Pass Details

Date: 03 March 2021
Orbit: 350 x 361 km, 97.5° (Epoch: 12 April)

Event Time Altitude Azimuth Distance (km) Brightness Sun altitude
Rises 18:53:29 0° 10° (N) 2,210 5.9 -13.7°
Reaches altitude 10° 18:55:26 10° 8° (N) 1,360 4.8 -14.0°
Maximum altitude 18:58:18 65° 286° (WNW) 408 2.4 -14.5°
Drops below altitude 10° 19:01:09 10° 203° (SSW) 1,355 5.0 -15.0°
Sets 19:03:05 0° 201° (SSW) 2,200 6.1 -15.3°
